owner,sensor,date,latitude,longitude,vertical_datum,direction_of_sea_water_velocity,sea_water_speed,upward_sea_water_velocity,qcFlag 
TABS,ioos:station:wmo:42047:1,2016-03-01T00:00:00Z,27.8966,-93.5973,2.0,4.101647154,23.20943989,-99999.0,'11111222,11111222,99999999' 
TABS,ioos:station:wmo:42047:1,2016-03-01T00:30:00Z,27.8966,-93.5973,2.0,6.001079931,18.46116194,-99999.0,'11111222,11111222,99999999' 
TABS,ioos:station:wmo:42047:1,2016-03-01T01:00:00Z,27.8966,-93.5973,2.0,7.517615725,20.1027809,-99999.0,'11111222,11111222,99999999' 
TABS,ioos:station:wmo:42047:1,2016-03-01T01:30:00Z,27.8966,-93.5973,2.0,10.67678202,19.16171704,-99999.0,'11111222,11111222,99999999' 
TABS,ioos:station:wmo:42047:1,2016-03-01T02:00:00Z,27.8966,-93.5973,2.0,19.08090096,17.95655312,-99999.0,'11111222,11111222,99999999' 
TABS,ioos:station:wmo:42047:1,2016-03-01T02:30:00Z,27.8966,-93.5973,2.0,18.57056662,20.06470782,-99999.0,'11111222,11111222,99999999' 
TABS,ioos:station:wmo:42047:1,2016-03-01T03:00:00Z,27.8966,-93.5973,2.0,10.65247288,17.25739552,-99999.0,'11111222,11111222,99999999' 
TABS,ioos:station:wmo:42047:1,2016-03-01T03:30:00Z,27.8966,-93.5973,2.0,20.61835037,14.02856015,-99999.0,'11111222,11111222,99999999' 
TABS,ioos:station:wmo:42047:1,2016-03-01T04:00:00Z,27.8966,-93.5973,2.0,351.7258665,13.48032641,-99999.0,'11111222,11111222,99999999' 
TABS,ioos:station:wmo:42047:1,2016-03-01T04:30:00Z,27.8966,-93.5973,2.0,17.15554876,16.00195301,-99999.0,'11111222,11111222,99999999' 
TABS,ioos:station:wmo:42047:1,2016-03-01T05:00:00Z,27.8966,-93.5973,2.0,7.200927295,15.95584219,-99999.0,'11111222,11111222,99999999' 
TABS,ioos:station:wmo:42047:1,2016-03-01T05:30:00Z,27.8966,-93.5973,2.0,13.30190179,16.08143339,-99999.0,'11111222,11111222,99999999' 
TABS,ioos:station:wmo:42047:1,2016-03-01T06:00:00Z,27.8966,-93.5973,2.0,12.5610155,19.40443248,-99999.0,'11111222,11111222,99999999' 
TABS,ioos:station:wmo:42047:1,2016-03-01T06:30:00Z,27.8966,-93.5973,2.0,4.588997764,21.49891393,-99999.0,'11111222,11111222,99999999' 
TABS,ioos:station:wmo:42047:1,2016-03-01T07:00:00Z,27.8966,-93.5973,2.0,359.5008421,17.21065368,-99999.0,'11111222,11144222,99999999' 
TABS,ioos:station:wmo:42047:1,2016-03-01T07:30:00Z,27.8966,-93.5973,2.0,7.351630666,19.45996146,-99999.0,'11111222,11111222,99999999' 
TABS,ioos:station:wmo:42047:1,2016-03-01T08:00:00Z,27.8966,-93.5973,2.0,14.24635503,25.15353852,-99999.0,'11111222,11111222,99999999' 
TABS,ioos:station:wmo:42047:1,2016-03-01T08:30:00Z,27.8966,-93.5973,2.0,9.981045674,23.251901,-99999.0,'11111222,11111222,99999999' 
TABS,ioos:station:wmo:42047:1,2016-03-01T09:00:00Z,27.8966,-93.5973,2.0,20.67052976,19.94385118,-99999.0,'11111222,11111222,99999999' 
TABS,ioos:station:wmo:42047:1,2016-03-01T09:30:00Z,27.8966,-93.5973,2.0,8.504023977,28.40225519,-99999.0,'11111222,11111222,99999999' 
TABS,ioos:station:wmo:42047:1,2016-03-01T10:00:00Z,27.8966,-93.5973,2.0,10.50723906,28.1316992,-99999.0,'11111222,11111222,99999999' 
TABS,ioos:station:wmo:42047:1,2016-03-01T10:30:00Z,27.8966,-93.5973,2.0,9.852951844,28.22631751,-99999.0,'11111222,11111222,99999999' 
TABS,ioos:station:wmo:42047:1,2016-03-01T11:00:00Z,27.8966,-93.5973,2.0,12.3291577,27.67832546,-99999.0,'11111222,11111222,99999999' 
TABS,ioos:station:wmo:42047:1,2016-03-01T11:30:00Z,27.8966,-93.5973,2.0,10.2927833,33.46857182,-99999.0,'11111222,11111222,99999999' 
TABS,ioos:station:wmo:42047:1,2016-03-01T12:00:00Z,27.8966,-93.5973,2.0,11.233089,17.50534204,-99999.0,'11111222,11111222,99999999' 
TABS,ioos:station:wmo:42047:1,2016-03-01T12:30:00Z,27.8966,-93.5973,2.0,13.48278745,28.86551229,-99999.0,'11111222,11111222,99999999' 
TABS,ioos:station:wmo:42047:1,2016-03-01T13:00:00Z,27.8966,-93.5973,2.0,21.26040132,24.37917144,-99999.0,'11111222,11111222,99999999' 
TABS,ioos:station:wmo:42047:1,2016-03-01T13:30:00Z,27.8966,-93.5973,2.0,20.57157956,30.53720681,-99999.0,'11111222,11111222,99999999' 
TABS,ioos:station:wmo:42047:1,2016-03-01T14:00:00Z,27.8966,-93.5973,2.0,25.38256726,25.56817553,-99999.0,'11111222,11111222,99999999' 
TABS,ioos:station:wmo:42047:1,2016-03-01T14:30:00Z,27.8966,-93.5973,2.0,32.10524793,24.96828789,-99999.0,'11111222,11111222,99999999' 
TABS,ioos:station:wmo:42047:1,2016-03-01T15:00:00Z,27.8966,-93.5973,2.0,25.8842136,25.58689704,-99999.0,'11111222,11111222,99999999' 
TABS,ioos:station:wmo:42047:1,2016-03-01T15:30:00Z,27.8966,-93.5973,2.0,28.13013924,22.27059945,-99999.0,'11111222,11111222,99999999' 
TABS,ioos:station:wmo:42047:1,2016-03-01T16:00:00Z,27.8966,-93.5973,2.0,31.65406558,22.63774061,-99999.0,'11111222,11111222,99999999' 
TABS,ioos:station:wmo:42047:1,2016-03-01T16:30:00Z,27.8966,-93.5973,2.0,41.55986279,23.21372223,-99999.0,'11111222,11111222,99999999' 
TABS,ioos:station:wmo:42047:1,2016-03-01T17:00:00Z,27.8966,-93.5973,2.0,38.54597374,22.77174126,-99999.0,'11111222,11111222,99999999' 
TABS,ioos:station:wmo:42047:1,2016-03-01T17:30:00Z,27.8966,-93.5973,2.0,45.79199076,22.00019318,-99999.0,'11111222,11111222,99999999' 
TABS,ioos:station:wmo:42047:1,2016-03-01T18:00:00Z,27.8966,-93.5973,2.0,44.65766915,22.47932606,-99999.0,'11111222,11111222,99999999' 
TABS,ioos:station:wmo:42047:1,2016-03-01T18:30:00Z,27.8966,-93.5973,2.0,38.53209698,23.09971861,-99999.0,'11111222,11111222,99999999' 
TABS,ioos:station:wmo:42047:1,2016-03-01T19:00:00Z,27.8966,-93.5973,2.0,38.05764353,18.72002137,-99999.0,'11111222,11111222,99999999' 
TABS,ioos:station:wmo:42047:1,2016-03-01T19:30:00Z,27.8966,-93.5973,2.0,42.85562577,17.95187177,-99999.0,'11111222,11111222,99999999' 
TABS,ioos:station:wmo:42047:1,2016-03-01T20:00:00Z,27.8966,-93.5973,2.0,33.58101278,23.28635652,-99999.0,'11111222,11111222,99999999' 
TABS,ioos:station:wmo:42047:1,2016-03-01T20:30:00Z,27.8966,-93.5973,2.0,37.86581486,21.6352675,-99999.0,'11111222,11111222,99999999' 
TABS,ioos:station:wmo:42047:1,2016-03-01T21:00:00Z,27.8966,-93.5973,2.0,38.72482954,22.05955802,-99999.0,'11111222,11111222,99999999' 
TABS,ioos:station:wmo:42047:1,2016-03-01T21:30:00Z,27.8966,-93.5973,2.0,26.80226638,20.53622409,-99999.0,'11111222,11111222,99999999' 
TABS,ioos:station:wmo:42047:1,2016-03-01T22:00:00Z,27.8966,-93.5973,2.0,29.96502274,21.64298039,-99999.0,'11111222,11111222,99999999' 
TABS,ioos:station:wmo:42047:1,2016-03-01T22:30:00Z,27.8966,-93.5973,2.0,31.72446499,24.41840494,-99999.0,'11111222,11111222,99999999' 
TABS,ioos:station:wmo:42047:1,2016-03-01T23:00:00Z,27.8966,-93.5973,2.0,31.64996063,23.0596379,-99999.0,'11111222,11111222,99999999' 
TABS,ioos:station:wmo:42047:1,2016-03-01T23:30:00Z,27.8966,-93.5973,2.0,26.82923288,24.26159517,-99999.0,'11111222,11111222,99999999' 
TABS,ioos:station:wmo:42047:1,2016-03-02T00:00:00Z,27.8966,-93.5973,2.0,34.37820637,21.94274823,-99999.0,'11111222,11111222,99999999' 
TABS,ioos:station:wmo:42047:1,2016-03-02T00:30:00Z,27.8966,-93.5973,2.0,22.18343245,20.89676051,-99999.0,'11111222,11111222,99999999' 
TABS,ioos:station:wmo:42047:1,2016-03-02T01:00:00Z,27.8966,-93.5973,2.0,25.69651333,18.28866589,-99999.0,'11111222,11111222,99999999' 
TABS,ioos:station:wmo:42047:1,2016-03-02T01:30:00Z,27.8966,-93.5973,2.0,30.6450745,19.10866819,-99999.0,'11111222,11111222,99999999' 
TABS,ioos:station:wmo:42047:1,2016-03-02T02:00:00Z,27.8966,-93.5973,2.0,27.61194656,19.09473488,-99999.0,'11111222,11111222,99999999' 
TABS,ioos:station:wmo:42047:1,2016-03-02T02:30:00Z,27.8966,-93.5973,2.0,19.53681971,16.77582189,-99999.0,'11111222,11111222,99999999' 
TABS,ioos:station:wmo:42047:1,2016-03-02T03:00:00Z,27.8966,-93.5973,2.0,27.45460353,15.26971185,-99999.0,'11111222,11111222,99999999' 
TABS,ioos:station:wmo:42047:1,2016-03-02T03:30:00Z,27.8966,-93.5973,2.0,19.99817288,9.854161557,-99999.0,'11133222,11111222,99999999' 
TABS,ioos:station:wmo:42047:1,2016-03-02T04:00:00Z,27.8966,-93.5973,2.0,26.35560547,13.44780279,-99999.0,'11111222,11111222,99999999' 
TABS,ioos:station:wmo:42047:1,2016-03-02T04:30:00Z,27.8966,-93.5973,2.0,17.88981799,9.635896429,-99999.0,'11133222,11111222,99999999' 
TABS,ioos:station:wmo:42047:1,2016-03-02T05:00:00Z,27.8966,-93.5973,2.0,21.29454109,12.17094902,-99999.0,'11111222,11111222,99999999' 
TABS,ioos:station:wmo:42047:1,2016-03-02T05:30:00Z,27.8966,-93.5973,2.0,18.26109804,8.329477775,-99999.0,'11133222,11111222,99999999' 
TABS,ioos:station:wmo:42047:1,2016-03-02T06:00:00Z,27.8966,-93.5973,2.0,24.06994965,9.758509107,-99999.0,'11133222,11111222,99999999' 
TABS,ioos:station:wmo:42047:1,2016-03-02T06:30:00Z,27.8966,-93.5973,2.0,20.83308721,10.65672088,-99999.0,'11111222,11111222,99999999' 
TABS,ioos:station:wmo:42047:1,2016-03-02T07:00:00Z,27.8966,-93.5973,2.0,10.28075159,12.66330131,-99999.0,'11111222,11111222,99999999' 
TABS,ioos:station:wmo:42047:1,2016-03-02T07:30:00Z,27.8966,-93.5973,2.0,25.35520192,12.28322433,-99999.0,'11111222,11111222,99999999' 
TABS,ioos:station:wmo:42047:1,2016-03-02T08:00:00Z,27.8966,-93.5973,2.0,356.4062635,14.19792238,-99999.0,'11111222,11111222,99999999' 
TABS,ioos:station:wmo:42047:1,2016-03-02T08:30:00Z,27.8966,-93.5973,2.0,354.9971845,8.944076252,-99999.0,'11133222,11111222,99999999' 
TABS,ioos:station:wmo:42047:1,2016-03-02T09:00:00Z,27.8966,-93.5973,2.0,6.397162566,13.37326437,-99999.0,'11111222,11111222,99999999' 
TABS,ioos:station:wmo:42047:1,2016-03-02T09:30:00Z,27.8966,-93.5973,2.0,352.6023764,16.93093323,-99999.0,'11111222,11111222,99999999' 
TABS,ioos:station:wmo:42047:1,2016-03-02T10:00:00Z,27.8966,-93.5973,2.0,14.14393431,15.51018053,-99999.0,'11111222,11111222,99999999' 
TABS,ioos:station:wmo:42047:1,2016-03-02T10:30:00Z,27.8966,-93.5973,2.0,3.773493659,18.69051631,-99999.0,'11111222,11111222,99999999' 
TABS,ioos:station:wmo:42047:1,2016-03-02T11:00:00Z,27.8966,-93.5973,2.0,59.68404763,11.07437131,-99999.0,'11111222,11111222,99999999' 
TABS,ioos:station:wmo:42047:1,2016-03-02T11:30:00Z,27.8966,-93.5973,2.0,16.59647543,11.72860179,-99999.0,'11111222,11111222,99999999' 
TABS,ioos:station:wmo:42047:1,2016-03-02T12:00:00Z,27.8966,-93.5973,2.0,4.259882713,7.27008253,-99999.0,'11133222,11111222,99999999' 
TABS,ioos:station:wmo:42047:1,2016-03-02T12:30:00Z,27.8966,-93.5973,2.0,340.6789796,14.71900132,-99999.0,'11111222,11111222,99999999' 
TABS,ioos:station:wmo:42047:1,2016-03-02T13:00:00Z,27.8966,-93.5973,2.0,354.6485546,17.15477776,-99999.0,'11111222,11111222,99999999' 
TABS,ioos:station:wmo:42047:1,2016-03-02T13:30:00Z,27.8966,-93.5973,2.0,349.5473377,17.30722393,-99999.0,'11111222,11111222,99999999' 
TABS,ioos:station:wmo:42047:1,2016-03-02T14:00:00Z,27.8966,-93.5973,2.0,354.0836411,18.82025505,-99999.0,'11111222,11111222,99999999' 
TABS,ioos:station:wmo:42047:1,2016-03-02T14:30:00Z,27.8966,-93.5973,2.0,353.029231,16.14938079,-99999.0,'11111222,11111222,99999999' 
TABS,ioos:station:wmo:42047:1,2016-03-02T15:00:00Z,27.8966,-93.5973,2.0,351.2777554,16.55142592,-99999.0,'11111222,11111222,99999999' 
TABS,ioos:station:wmo:42047:1,2016-03-02T15:30:00Z,27.8966,-93.5973,2.0,345.6366793,19.95373148,-99999.0,'11111222,11111222,99999999' 
TABS,ioos:station:wmo:42047:1,2016-03-02T16:00:00Z,27.8966,-93.5973,2.0,350.4101814,20.64856411,-99999.0,'11111222,11111222,99999999' 
TABS,ioos:station:wmo:42047:1,2016-03-02T16:30:00Z,27.8966,-93.5973,2.0,4.424841216,23.72069561,-99999.0,'11111222,11111222,99999999' 
TABS,ioos:station:wmo:42047:1,2016-03-02T17:00:00Z,27.8966,-93.5973,2.0,359.9454868,20.94000955,-99999.0,'11111222,11144222,99999999' 
TABS,ioos:station:wmo:42047:1,2016-03-02T17:30:00Z,27.8966,-93.5973,2.0,342.2746628,26.30900416,-99999.0,'11111222,11111222,99999999' 
TABS,ioos:station:wmo:42047:1,2016-03-02T18:00:00Z,27.8966,-93.5973,2.0,6.340387378,22.00458589,-99999.0,'11111222,11111222,99999999' 
TABS,ioos:station:wmo:42047:1,2016-03-02T18:30:00Z,27.8966,-93.5973,2.0,356.5336267,21.16873402,-99999.0,'11111222,11111222,99999999' 
TABS,ioos:station:wmo:42047:1,2016-03-02T19:00:00Z,27.8966,-93.5973,2.0,7.847092422,18.31146089,-99999.0,'11111222,11111222,99999999' 
TABS,ioos:station:wmo:42047:1,2016-03-02T19:30:00Z,27.8966,-93.5973,2.0,357.1140483,19.26443615,-99999.0,'11111222,11111222,99999999' 
TABS,ioos:station:wmo:42047:1,2016-03-02T20:00:00Z,27.8966,-93.5973,2.0,357.1458768,21.28640881,-99999.0,'11111222,11111222,99999999' 
TABS,ioos:station:wmo:42047:1,2016-03-02T20:30:00Z,27.8966,-93.5973,2.0,1.480635407,23.99801033,-99999.0,'11111222,11111222,99999999' 
TABS,ioos:station:wmo:42047:1,2016-03-02T21:00:00Z,27.8966,-93.5973,2.0,7.375801135,18.15017631,-99999.0,'11111222,11111222,99999999' 
TABS,ioos:station:wmo:42047:1,2016-03-02T21:30:00Z,27.8966,-93.5973,2.0,6.1166464,21.49234748,-99999.0,'11111222,11111222,99999999' 
TABS,ioos:station:wmo:42047:1,2016-03-02T22:00:00Z,27.8966,-93.5973,2.0,23.13585361,17.94303486,-99999.0,'11111222,11111222,99999999' 
TABS,ioos:station:wmo:42047:1,2016-03-02T22:30:00Z,27.8966,-93.5973,2.0,15.96536829,23.84991614,-99999.0,'11111222,11111222,99999999' 
TABS,ioos:station:wmo:42047:1,2016-03-02T23:00:00Z,27.8966,-93.5973,2.0,19.00443086,17.50407096,-99999.0,'11111222,11111222,99999999' 
TABS,ioos:station:wmo:42047:1,2016-03-02T23:30:00Z,27.8966,-93.5973,2.0,20.71623337,21.37179684,-99999.0,'11111222,11111222,99999999' 
TABS,ioos:station:wmo:42047:1,2016-03-03T00:00:00Z,27.8966,-93.5973,2.0,17.86462362,22.231914,-99999.0,'11111222,11111222,99999999' 
TABS,ioos:station:wmo:42047:1,2016-03-03T00:30:00Z,27.8966,-93.5973,2.0,14.31290898,20.10401204,-99999.0,'11111222,11111222,99999999' 
TABS,ioos:station:wmo:42047:1,2016-03-03T01:00:00Z,27.8966,-93.5973,2.0,14.76457612,16.79452292,-99999.0,'11111222,11111222,99999999' 
TABS,ioos:station:wmo:42047:1,2016-03-03T01:30:00Z,27.8966,-93.5973,2.0,25.0687884,21.40647098,-99999.0,'11111222,11111222,99999999' 
TABS,ioos:station:wmo:42047:1,2016-03-03T02:00:00Z,27.8966,-93.5973,2.0,27.10384186,23.30980266,-99999.0,'11111222,11111222,99999999' 
TABS,ioos:station:wmo:42047:1,2016-03-03T02:30:00Z,27.8966,-93.5973,2.0,28.09063631,26.20706012,-99999.0,'11111222,11111222,99999999' 
TABS,ioos:station:wmo:42047:1,2016-03-03T03:00:00Z,27.8966,-93.5973,2.0,36.52104672,23.64243854,-99999.0,'11111222,11111222,99999999' 
TABS,ioos:station:wmo:42047:1,2016-03-03T03:30:00Z,27.8966,-93.5973,2.0,27.41697268,26.47349807,-99999.0,'11111222,11111222,99999999' 
TABS,ioos:station:wmo:42047:1,2016-03-03T04:00:00Z,27.8966,-93.5973,2.0,44.35199209,18.75367164,-99999.0,'11111222,11111222,99999999' 
TABS,ioos:station:wmo:42047:1,2016-03-03T04:30:00Z,27.8966,-93.5973,2.0,37.24545951,22.5864849,-99999.0,'11111222,11111222,99999999' 
TABS,ioos:station:wmo:42047:1,2016-03-03T05:00:00Z,27.8966,-93.5973,2.0,49.19304334,19.63233302,-99999.0,'11111222,11111222,99999999' 
TABS,ioos:station:wmo:42047:1,2016-03-03T05:30:00Z,27.8966,-93.5973,2.0,52.07286363,23.08593078,-99999.0,'11111222,11111222,99999999' 
TABS,ioos:station:wmo:42047:1,2016-03-03T06:00:00Z,27.8966,-93.5973,2.0,42.72643871,21.0317712,-99999.0,'11111222,11111222,99999999' 
TABS,ioos:station:wmo:42047:1,2016-03-03T06:30:00Z,27.8966,-93.5973,2.0,48.95998014,21.80974324,-99999.0,'11111222,11111222,99999999' 
TABS,ioos:station:wmo:42047:1,2016-03-03T07:00:00Z,27.8966,-93.5973,2.0,46.49536364,22.76244714,-99999.0,'11111222,11111222,99999999' 
TABS,ioos:station:wmo:42047:1,2016-03-03T07:30:00Z,27.8966,-93.5973,2.0,52.39555299,25.27007717,-99999.0,'11111222,11111222,99999999' 
TABS,ioos:station:wmo:42047:1,2016-03-03T08:00:00Z,27.8966,-93.5973,2.0,36.64719585,23.6561789,-99999.0,'11111222,11111222,99999999' 
TABS,ioos:station:wmo:42047:1,2016-03-03T08:30:00Z,27.8966,-93.5973,2.0,44.02475029,25.33930741,-99999.0,'11111222,11111222,99999999' 
TABS,ioos:station:wmo:42047:1,2016-03-03T09:00:00Z,27.8966,-93.5973,2.0,48.10503932,23.10681501,-99999.0,'11111222,11111222,99999999' 
TABS,ioos:station:wmo:42047:1,2016-03-03T09:30:00Z,27.8966,-93.5973,2.0,44.20273434,23.88130859,-99999.0,'11111222,11111222,99999999' 
TABS,ioos:station:wmo:42047:1,2016-03-03T10:00:00Z,27.8966,-93.5973,2.0,48.46343416,25.04904389,-99999.0,'11111222,11111222,99999999' 
TABS,ioos:station:wmo:42047:1,2016-03-03T10:30:00Z,27.8966,-93.5973,2.0,48.83574404,27.48316212,-99999.0,'11111222,11111222,99999999' 
TABS,ioos:station:wmo:42047:1,2016-03-03T11:00:00Z,27.8966,-93.5973,2.0,50.80910783,20.88913833,-99999.0,'11111222,11111222,99999999' 
TABS,ioos:station:wmo:42047:1,2016-03-03T11:30:00Z,27.8966,-93.5973,2.0,46.59511116,26.16601804,-99999.0,'11111222,11111222,99999999' 
TABS,ioos:station:wmo:42047:1,2016-03-03T12:00:00Z,27.8966,-93.5973,2.0,39.98319592,7.438978424,-99999.0,'11133222,11111222,99999999' 
TABS,ioos:station:wmo:42047:1,2016-03-03T12:30:00Z,27.8966,-93.5973,2.0,60.48175384,27.60290564,-99999.0,'11111222,11111222,99999999' 
TABS,ioos:station:wmo:42047:1,2016-03-03T13:00:00Z,27.8966,-93.5973,2.0,50.89932708,24.14830222,-99999.0,'11111222,11111222,99999999' 
TABS,ioos:station:wmo:42047:1,2016-03-03T13:30:00Z,27.8966,-93.5973,2.0,59.17119944,26.22563631,-99999.0,'11111222,11111222,99999999' 
TABS,ioos:station:wmo:42047:1,2016-03-03T14:00:00Z,27.8966,-93.5973,2.0,47.21998031,27.93046545,-99999.0,'11111222,11111222,99999999' 
TABS,ioos:station:wmo:42047:1,2016-03-03T14:30:00Z,27.8966,-93.5973,2.0,62.82288175,28.04636518,-99999.0,'11111222,11111222,99999999' 
TABS,ioos:station:wmo:42047:1,2016-03-03T15:00:00Z,27.8966,-93.5973,2.0,59.86792265,24.22329664,-99999.0,'11111222,11111222,99999999' 
TABS,ioos:station:wmo:42047:1,2016-03-03T15:30:00Z,27.8966,-93.5973,2.0,55.47095564,22.91712242,-99999.0,'11111222,11111222,99999999' 
TABS,ioos:station:wmo:42047:1,2016-03-03T16:00:00Z,27.8966,-93.5973,2.0,58.32259051,25.74565012,-99999.0,'11111222,11111222,99999999' 
TABS,ioos:station:wmo:42047:1,2016-03-03T16:30:00Z,27.8966,-93.5973,2.0,56.46489746,25.64943079,-99999.0,'11111222,11111222,99999999' 
TABS,ioos:station:wmo:42047:1,2016-03-03T17:00:00Z,27.8966,-93.5973,2.0,56.91310104,23.97824431,-99999.0,'11111222,11111222,99999999' 
TABS,ioos:station:wmo:42047:1,2016-03-03T17:30:00Z,27.8966,-93.5973,2.0,64.71647281,26.99609231,-99999.0,'11111222,11111222,99999999' 
TABS,ioos:station:wmo:42047:1,2016-03-03T18:00:00Z,27.8966,-93.5973,2.0,62.58414807,27.10413253,-99999.0,'11111222,11111222,99999999' 
TABS,ioos:station:wmo:42047:1,2016-03-03T18:30:00Z,27.8966,-93.5973,2.0,65.10140007,24.29844645,-99999.0,'11111222,11111222,99999999' 
TABS,ioos:station:wmo:42047:1,2016-03-03T19:00:00Z,27.8966,-93.5973,2.0,67.03797398,26.40200939,-99999.0,'11111222,11111222,99999999' 
TABS,ioos:station:wmo:42047:1,2016-03-03T19:30:00Z,27.8966,-93.5973,2.0,58.57937134,24.51478737,-99999.0,'11111222,11111222,99999999' 
TABS,ioos:station:wmo:42047:1,2016-03-03T20:00:00Z,27.8966,-93.5973,2.0,65.12339042,24.43741598,-99999.0,'11111222,11111222,99999999' 
TABS,ioos:station:wmo:42047:1,2016-03-03T20:30:00Z,27.8966,-93.5973,2.0,65.65433237,24.13633361,-99999.0,'11111222,11111222,99999999' 
TABS,ioos:station:wmo:42047:1,2016-03-03T21:00:00Z,27.8966,-93.5973,2.0,62.93844535,21.67278478,-99999.0,'11111222,11111222,99999999' 
TABS,ioos:station:wmo:42047:1,2016-03-03T21:30:00Z,27.8966,-93.5973,2.0,63.74520315,19.82526923,-99999.0,'11111222,11111222,99999999' 
TABS,ioos:station:wmo:42047:1,2016-03-03T22:00:00Z,27.8966,-93.5973,2.0,72.04153495,19.39491944,-99999.0,'11111222,11111222,99999999' 
TABS,ioos:station:wmo:42047:1,2016-03-03T22:30:00Z,27.8966,-93.5973,2.0,63.2102131,18.2375108,-99999.0,'11111222,11111222,99999999' 
TABS,ioos:station:wmo:42047:1,2016-03-03T23:00:00Z,27.8966,-93.5973,2.0,62.47521616,18.95557174,-99999.0,'11111222,11111222,99999999' 
TABS,ioos:station:wmo:42047:1,2016-03-03T23:30:00Z,27.8966,-93.5973,2.0,63.69378335,16.83329142,-99999.0,'11111222,11111222,99999999' 
TABS,ioos:station:wmo:42047:1,2016-03-04T00:00:00Z,27.8966,-93.5973,2.0,62.7148687,21.70499021,-99999.0,'11111222,11111222,99999999' 
TABS,ioos:station:wmo:42047:1,2016-03-04T00:30:00Z,27.8966,-93.5973,2.0,55.88717284,19.54262009,-99999.0,'11111222,11111222,99999999' 
TABS,ioos:station:wmo:42047:1,2016-03-04T01:00:00Z,27.8966,-93.5973,2.0,75.69586917,14.0041601,-99999.0,'11111222,11111222,99999999' 
TABS,ioos:station:wmo:42047:1,2016-03-04T01:30:00Z,27.8966,-93.5973,2.0,61.62828605,14.75196597,-99999.0,'11111222,11111222,99999999' 
TABS,ioos:station:wmo:42047:1,2016-03-04T02:00:00Z,27.8966,-93.5973,2.0,57.04665044,10.57068588,-99999.0,'11111222,11111222,99999999' 
TABS,ioos:station:wmo:42047:1,2016-03-04T02:30:00Z,27.8966,-93.5973,2.0,35.13432136,11.22515033,-99999.0,'11111222,11111222,99999999' 
TABS,ioos:station:wmo:42047:1,2016-03-04T03:00:00Z,27.8966,-93.5973,2.0,57.2220053,14.46286624,-99999.0,'11111222,11111222,99999999' 
TABS,ioos:station:wmo:42047:1,2016-03-04T03:30:00Z,27.8966,-93.5973,2.0,54.70252535,9.985759861,-99999.0,'11133222,11111222,99999999' 
TABS,ioos:station:wmo:42047:1,2016-03-04T04:00:00Z,27.8966,-93.5973,2.0,64.99910927,8.683651306,-99999.0,'11133222,11111222,99999999' 
TABS,ioos:station:wmo:42047:1,2016-03-04T04:30:00Z,27.8966,-93.5973,2.0,42.00610561,9.070418954,-99999.0,'11133222,11111222,99999999' 
TABS,ioos:station:wmo:42047:1,2016-03-04T05:00:00Z,27.8966,-93.5973,2.0,31.40762522,11.0722807,-99999.0,'11111222,11111222,99999999' 
TABS,ioos:station:wmo:42047:1,2016-03-04T05:30:00Z,27.8966,-93.5973,2.0,31.06844857,9.398138113,-99999.0,'11133222,11111222,99999999' 
TABS,ioos:station:wmo:42047:1,2016-03-04T06:00:00Z,27.8966,-93.5973,2.0,27.72123277,9.974893483,-99999.0,'11133222,11111222,99999999' 
TABS,ioos:station:wmo:42047:1,2016-03-04T06:30:00Z,27.8966,-93.5973,2.0,27.47313691,14.11136067,-99999.0,'11111222,11111222,99999999' 
TABS,ioos:station:wmo:42047:1,2016-03-04T07:00:00Z,27.8966,-93.5973,2.0,34.26706389,12.9473588,-99999.0,'11111222,11111222,99999999' 
TABS,ioos:station:wmo:42047:1,2016-03-04T07:30:00Z,27.8966,-93.5973,2.0,41.50990394,11.15054259,-99999.0,'11111222,11111222,99999999' 
TABS,ioos:station:wmo:42047:1,2016-03-04T08:00:00Z,27.8966,-93.5973,2.0,52.72633057,10.78226785,-99999.0,'11111222,11111222,99999999' 
TABS,ioos:station:wmo:42047:1,2016-03-04T08:30:00Z,27.8966,-93.5973,2.0,86.17218093,5.542364117,-99999.0,'11133222,11111222,99999999' 
TABS,ioos:station:wmo:42047:1,2016-03-04T09:00:00Z,27.8966,-93.5973,2.0,109.9893271,7.810537754,-99999.0,'11133222,11111222,99999999' 
TABS,ioos:station:wmo:42047:1,2016-03-04T09:30:00Z,27.8966,-93.5973,2.0,81.61605213,8.298686643,-99999.0,'11133222,11111222,99999999' 
TABS,ioos:station:wmo:42047:1,2016-03-04T10:00:00Z,27.8966,-93.5973,2.0,134.8864382,3.570896246,-99999.0,'11133222,11111222,99999999' 
TABS,ioos:station:wmo:42047:1,2016-03-04T10:30:00Z,27.8966,-93.5973,2.0,258.9586647,1.670927886,-99999.0,'11133222,11111222,99999999' 
TABS,ioos:station:wmo:42047:1,2016-03-04T11:00:00Z,27.8966,-93.5973,2.0,46.95578205,2.900827468,-99999.0,'11133222,11111222,99999999' 
TABS,ioos:station:wmo:42047:1,2016-03-04T11:30:00Z,27.8966,-93.5973,2.0,325.1167351,6.924160599,-99999.0,'11133222,11111222,99999999' 
TABS,ioos:station:wmo:42047:1,2016-03-04T12:00:00Z,27.8966,-93.5973,2.0,224.1596324,2.411493313,-99999.0,'11133222,11111222,99999999' 
TABS,ioos:station:wmo:42047:1,2016-03-04T12:30:00Z,27.8966,-93.5973,2.0,107.303154,6.724314091,-99999.0,'11133222,11111222,99999999' 
TABS,ioos:station:wmo:42047:1,2016-03-04T13:00:00Z,27.8966,-93.5973,2.0,73.33275445,6.86857336,-99999.0,'11133222,11111222,99999999' 
TABS,ioos:station:wmo:42047:1,2016-03-04T13:30:00Z,27.8966,-93.5973,2.0,84.09005477,5.147358546,-99999.0,'11133222,11111222,99999999' 
TABS,ioos:station:wmo:42047:1,2016-03-04T14:00:00Z,27.8966,-93.5973,2.0,78.91314159,8.060434231,-99999.0,'11133222,11111222,99999999' 
TABS,ioos:station:wmo:42047:1,2016-03-04T14:30:00Z,27.8966,-93.5973,2.0,84.62766196,10.78738615,-99999.0,'11111222,11111222,99999999' 
TABS,ioos:station:wmo:42047:1,2016-03-04T15:00:00Z,27.8966,-93.5973,2.0,87.70677728,8.747005202,-99999.0,'11133222,11111222,99999999' 
TABS,ioos:station:wmo:42047:1,2016-03-04T15:30:00Z,27.8966,-93.5973,2.0,92.83137388,8.300132529,-99999.0,'11133222,11111222,99999999' 
TABS,ioos:station:wmo:42047:1,2016-03-04T16:00:00Z,27.8966,-93.5973,2.0,92.56376422,8.718726971,-99999.0,'11133222,11111222,99999999' 